Time,TemperatureF,DewpointF,PressureIn,WindDirection,WindDirectionDegrees,WindSpeedMPH,WindSpeedGustMPH,Humidity,HourlyPrecipIn,Conditions,Clouds,dailyrainin,SoftwareType,DateUTC
2013-08-08 00:04:00,58.7,54.5,29.62,North,360,5.0,8.0,86,0.00,,---,0.00,VWS V14.00,2013-08-08 06:04:00,
2013-08-08 00:09:00,58.0,53.8,29.62,North,360,5.0,8.0,86,0.00,,---,0.00,VWS V14.00,2013-08-08 06:09:00,
2013-08-08 00:14:00,57.5,53.7,29.62,North,11,2.0,8.0,87,0.00,,---,0.00,VWS V14.00,2013-08-08 06:14:00,
2013-08-08 00:19:00,57.6,54.4,29.62,North,11,4.0,4.0,89,0.00,,---,0.00,VWS V14.00,2013-08-08 06:19:00,
2013-08-08 00:24:00,57.6,54.4,29.62,North,11,4.0,5.0,89,0.00,,---,0.00,VWS V14.00,2013-08-08 06:24:00,
2013-08-08 00:29:00,58.2,55.3,29.62,North,355,3.0,7.0,90,0.00,,---,0.00,VWS V14.00,2013-08-08 06:29:00,
2013-08-08 00:34:00,58.5,55.3,29.62,NNW,338,4.0,7.0,89,0.00,,---,0.00,VWS V14.00,2013-08-08 06:34:00,
2013-08-08 00:39:00,58.7,55.5,29.62,NNW,341,4.0,6.0,89,0.00,,---,0.00,VWS V14.00,2013-08-08 06:39:00,
2013-08-08 00:44:00,59.1,55.9,29.62,NNW,341,4.0,6.0,89,0.00,,---,0.00,VWS V14.00,2013-08-08 06:44:00,
2013-08-08 00:49:00,59.1,55.5,29.62,North,350,4.0,5.0,88,0.00,,---,0.00,VWS V14.00,2013-08-08 06:49:00,
2013-08-08 00:54:00,58.7,54.8,29.63,North,355,0.0,5.0,87,0.00,,---,0.00,VWS V14.00,2013-08-08 06:54:00,
2013-08-08 00:59:00,57.9,53.7,29.63,North,355,0.0,1.0,86,0.00,,---,0.00,VWS V14.00,2013-08-08 06:59:00,
2013-08-08 01:04:00,57.3,53.8,29.63,North,355,0.0,0.0,88,0.00,,---,0.00,VWS V14.00,2013-08-08 07:04:00,
2013-08-08 01:10:00,56.8,53.3,29.63,North,360,0.0,4.0,88,0.00,,---,0.00,VWS V14.00,2013-08-08 07:10:00,
2013-08-08 01:15:00,56.9,54.3,29.63,North,355,7.0,7.0,91,0.00,,---,0.00,VWS V14.00,2013-08-08 07:15:00,
2013-08-08 01:20:00,58.3,56.0,29.64,North,5,8.0,10.0,92,0.00,,---,0.00,VWS V14.00,2013-08-08 07:20:00,
2013-08-08 01:25:00,59.0,56.7,29.63,North,360,6.0,7.0,92,0.00,,---,0.00,VWS V14.00,2013-08-08 07:25:00,
2013-08-08 01:30:00,59.1,56.8,29.64,North,9,6.0,9.0,92,0.00,,---,0.00,VWS V14.00,2013-08-08 07:30:00,
2013-08-08 01:35:00,59.1,56.8,29.64,North,11,5.0,5.0,92,0.00,,---,0.00,VWS V14.00,2013-08-08 07:35:00,
2013-08-08 01:40:00,59.1,56.8,29.64,NNE,16,3.0,7.0,92,0.00,,---,0.00,VWS V14.00,2013-08-08 07:40:00,
2013-08-08 01:45:00,58.9,56.3,29.64,NNE,18,5.0,5.0,91,0.00,,---,0.00,VWS V14.00,2013-08-08 07:45:00,
2013-08-08 01:50:00,58.6,56.0,29.64,North,5,5.0,6.0,91,0.00,,---,0.00,VWS V14.00,2013-08-08 07:50:00,
2013-08-08 01:55:00,58.6,56.3,29.64,North,5,5.0,5.0,92,0.00,,---,0.00,VWS V14.00,2013-08-08 07:55:00,
2013-08-08 02:00:00,58.7,56.4,29.65,NNE,18,3.0,6.0,92,0.00,,---,0.00,VWS V14.00,2013-08-08 08:00:00,
2013-08-08 02:05:00,58.2,55.6,29.64,NNE,17,3.0,5.0,91,0.00,,---,0.00,VWS V14.00,2013-08-08 08:05:00,
2013-08-08 02:10:00,58.6,56.3,29.64,North,360,5.0,7.0,92,0.00,,---,0.00,VWS V14.00,2013-08-08 08:10:00,
2013-08-08 02:15:00,58.7,56.4,29.65,NNE,12,6.0,7.0,92,0.00,,---,0.00,VWS V14.00,2013-08-08 08:15:00,
2013-08-08 02:21:00,58.7,56.4,29.65,North,360,7.0,8.0,92,0.00,,---,0.00,VWS V14.00,2013-08-08 08:21:00,
2013-08-08 02:26:00,58.7,56.4,29.65,North,5,8.0,8.0,92,0.00,,---,0.00,VWS V14.00,2013-08-08 08:26:00,
2013-08-08 02:31:00,58.6,56.6,29.65,NNE,17,6.0,9.0,93,0.00,,---,0.00,VWS V14.00,2013-08-08 08:31:00,
2013-08-08 02:36:00,58.5,56.5,29.65,North,355,6.0,8.0,93,0.00,,---,0.00,VWS V14.00,2013-08-08 08:36:00,
2013-08-08 02:41:00,58.2,55.9,29.65,North,360,6.0,8.0,92,0.00,,---,0.00,VWS V14.00,2013-08-08 08:41:00,
2013-08-08 02:46:00,58.1,55.8,29.65,North,355,7.0,8.0,92,0.00,,---,0.00,VWS V14.00,2013-08-08 08:46:00,
2013-08-08 02:51:00,58.0,55.7,29.65,North,355,6.0,9.0,92,0.00,,---,0.00,VWS V14.00,2013-08-08 08:51:00,
2013-08-08 02:56:00,58.2,55.9,29.65,North,360,5.0,6.0,92,0.00,,---,0.00,VWS V14.00,2013-08-08 08:56:00,
2013-08-08 03:01:00,58.1,55.8,29.65,NNW,346,6.0,7.0,92,0.00,,---,0.00,VWS V14.00,2013-08-08 09:01:00,
2013-08-08 03:06:00,58.0,55.7,29.65,NNW,345,5.0,5.0,92,0.00,,---,0.00,VWS V14.00,2013-08-08 09:06:00,
2013-08-08 03:11:00,58.0,56.0,29.65,NNW,344,6.0,7.0,93,0.00,,---,0.00,VWS V14.00,2013-08-08 09:11:00,
2013-08-08 03:16:00,58.2,56.2,29.64,North,360,4.0,6.0,93,0.00,,---,0.00,VWS V14.00,2013-08-08 09:16:00,
2013-08-08 03:21:00,58.2,56.2,29.64,NNE,22,4.0,7.0,93,0.00,,---,0.00,VWS V14.00,2013-08-08 09:21:00,
2013-08-08 03:26:00,58.2,56.2,29.64,NNE,22,5.0,8.0,93,0.00,,---,0.00,VWS V14.00,2013-08-08 09:26:00,
2013-08-08 03:31:00,58.2,56.2,29.64,NNE,13,5.0,8.0,93,0.00,,---,0.00,VWS V14.00,2013-08-08 09:31:00,
2013-08-08 03:36:00,58.1,55.8,29.65,NNE,13,4.0,7.0,92,0.00,,---,0.00,VWS V14.00,2013-08-08 09:36:00,
2013-08-08 03:41:00,57.9,55.0,29.64,North,350,4.0,7.0,90,0.00,,---,0.00,VWS V14.00,2013-08-08 09:41:00,
2013-08-08 03:46:00,58.1,54.9,29.64,North,360,5.0,6.0,89,0.00,,---,0.00,VWS V14.00,2013-08-08 09:46:00,
2013-08-08 03:52:00,58.1,54.6,29.64,NNW,343,2.0,7.0,88,0.00,,---,0.00,VWS V14.00,2013-08-08 09:52:00,
2013-08-08 03:57:00,58.1,54.3,29.65,NNW,342,0.0,4.0,87,0.00,,---,0.00,VWS V14.00,2013-08-08 09:57:00,
2013-08-08 04:02:00,58.0,54.5,29.65,NNW,342,0.0,4.0,88,0.00,,---,0.00,VWS V14.00,2013-08-08 10:02:00,
2013-08-08 04:07:00,57.8,54.6,29.65,North,355,0.0,3.0,89,0.00,,---,0.00,VWS V14.00,2013-08-08 10:07:00,
2013-08-08 04:12:00,57.5,54.3,29.65,North,355,3.0,4.0,89,0.00,,---,0.00,VWS V14.00,2013-08-08 10:12:00,
2013-08-08 04:17:00,57.2,54.3,29.65,North,351,0.0,0.0,90,0.00,,---,0.00,VWS V14.00,2013-08-08 10:17:00,
2013-08-08 04:22:00,57.3,54.7,29.65,North,355,0.0,1.0,91,0.00,,---,0.00,VWS V14.00,2013-08-08 10:22:00,
2013-08-08 04:27:00,57.6,55.3,29.65,North,9,4.0,5.0,92,0.00,,---,0.00,VWS V14.00,2013-08-08 10:27:00,
2013-08-08 04:32:00,58.0,56.0,29.65,North,9,4.0,6.0,93,0.00,,---,0.00,VWS V14.00,2013-08-08 10:32:00,
2013-08-08 04:37:00,58.2,56.2,29.65,North,10,5.0,7.0,93,0.00,,---,0.00,VWS V14.00,2013-08-08 10:37:00,
2013-08-08 04:42:00,58.2,56.2,29.65,North,9,5.0,8.0,93,0.00,,---,0.00,VWS V14.00,2013-08-08 10:42:00,
2013-08-08 04:47:00,58.3,56.3,29.65,NNE,22,7.0,9.0,93,0.00,,---,0.00,VWS V14.00,2013-08-08 10:47:00,
2013-08-08 04:52:00,58.2,56.2,29.65,NNE,17,6.0,9.0,93,0.00,,---,0.00,VWS V14.00,2013-08-08 10:52:00,
2013-08-08 04:57:00,58.0,56.0,29.66,North,5,7.0,11.0,93,0.00,,---,0.00,VWS V14.00,2013-08-08 10:57:00,
2013-08-08 05:02:00,58.0,56.3,29.66,NNE,30,7.0,11.0,94,0.00,,---,0.00,VWS V14.00,2013-08-08 11:02:00,
2013-08-08 05:07:00,58.0,56.3,29.66,North,5,9.0,9.0,94,0.00,,---,0.00,VWS V14.00,2013-08-08 11:07:00,
2013-08-08 05:12:00,57.9,56.2,29.66,NNE,12,8.0,11.0,94,0.00,,---,0.00,VWS V14.00,2013-08-08 11:12:00,
2013-08-08 05:17:00,57.8,56.1,29.66,North,5,7.0,11.0,94,0.00,,---,0.00,VWS V14.00,2013-08-08 11:17:00,
2013-08-08 05:23:00,57.8,56.1,29.66,North,360,7.0,11.0,94,0.00,,---,0.00,VWS V14.00,2013-08-08 11:23:00,
2013-08-08 05:28:00,57.8,56.1,29.67,North,5,7.0,8.0,94,0.00,,---,0.00,VWS V14.00,2013-08-08 11:28:00,
2013-08-08 05:33:00,57.8,56.1,29.67,NNE,12,9.0,9.0,94,0.00,,---,0.00,VWS V14.00,2013-08-08 11:33:00,
2013-08-08 05:38:00,57.8,56.1,29.67,North,360,4.0,7.0,94,0.00,,---,0.00,VWS V14.00,2013-08-08 11:38:00,
2013-08-08 05:43:00,57.7,56.0,29.66,NNW,338,3.0,7.0,94,0.00,,---,0.00,VWS V14.00,2013-08-08 11:43:00,
2013-08-08 05:48:00,57.6,55.9,29.66,NW,315,6.0,10.0,94,0.00,,---,0.00,VWS V14.00,2013-08-08 11:48:00,
2013-08-08 05:53:00,57.6,55.9,29.67,NNE,13,6.0,10.0,94,0.00,,---,0.00,VWS V14.00,2013-08-08 11:53:00,
2013-08-08 05:58:00,57.6,55.9,29.67,North,10,5.0,7.0,94,0.00,,---,0.00,VWS V14.00,2013-08-08 11:58:00,
2013-08-08 06:03:00,57.4,55.7,29.67,North,9,2.0,7.0,94,0.00,,---,0.00,VWS V14.00,2013-08-08 12:03:00,
2013-08-08 06:08:00,57.3,55.6,29.68,North,11,2.0,4.0,94,0.00,,---,0.00,VWS V14.00,2013-08-08 12:08:00,
2013-08-08 06:13:00,57.3,55.6,29.68,North,11,0.0,4.0,94,0.00,,---,0.00,VWS V14.00,2013-08-08 12:13:00,
2013-08-08 06:18:00,57.3,55.6,29.68,North,360,4.0,5.0,94,0.00,,---,0.00,VWS V14.00,2013-08-08 12:18:00,
2013-08-08 06:21:00,57.4,55.7,29.69,North,360,4.0,5.0,94,0.00,,---,0.00,VWS V14.00,2013-08-08 12:21:00,
2013-08-08 06:26:00,57.6,55.9,29.69,North,355,4.0,6.0,94,0.00,,---,0.00,VWS V14.00,2013-08-08 12:26:00,
2013-08-08 06:31:00,57.8,56.1,29.69,North,9,6.0,7.0,94,0.00,,---,0.00,VWS V14.00,2013-08-08 12:31:00,
2013-08-08 06:36:00,57.9,56.2,29.69,NNE,12,5.0,7.0,94,0.00,,---,0.00,VWS V14.00,2013-08-08 12:36:00,
2013-08-08 06:41:00,58.1,56.4,29.69,NNE,18,5.0,8.0,94,0.00,,---,0.00,VWS V14.00,2013-08-08 12:41:00,
2013-08-08 06:46:00,58.1,56.1,29.69,North,360,6.0,7.0,93,0.00,,---,0.00,VWS V14.00,2013-08-08 12:46:00,
2013-08-08 06:51:00,58.1,56.1,29.70,North,11,6.0,9.0,93,0.00,,---,0.00,VWS V14.00,2013-08-08 12:51:00,
2013-08-08 06:57:00,58.2,55.9,29.70,NNE,15,6.0,7.0,92,0.00,,---,0.00,VWS V14.00,2013-08-08 12:57:00,
2013-08-08 07:02:00,58.3,56.0,29.70,NNE,17,4.0,7.0,92,0.00,,---,0.00,VWS V14.00,2013-08-08 13:02:00,
2013-08-08 07:07:00,58.5,55.9,29.70,NNE,17,6.0,6.0,91,0.00,,---,0.00,VWS V14.00,2013-08-08 13:07:00,
2013-08-08 07:12:00,58.6,56.0,29.70,North,5,5.0,8.0,91,0.00,,---,0.00,VWS V14.00,2013-08-08 13:12:00,
2013-08-08 07:17:00,58.8,56.2,29.71,North,360,6.0,7.0,91,0.00,,---,0.00,VWS V14.00,2013-08-08 13:17:00,
2013-08-08 07:22:00,59.0,56.1,29.71,North,5,6.0,8.0,90,0.00,,---,0.00,VWS V14.00,2013-08-08 13:22:00,
2013-08-08 07:27:00,59.2,56.0,29.71,NNE,16,6.0,7.0,89,0.00,,---,0.00,VWS V14.00,2013-08-08 13:27:00,
2013-08-08 07:32:00,59.5,56.3,29.71,North,360,5.0,7.0,89,0.00,,---,0.00,VWS V14.00,2013-08-08 13:32:00,
2013-08-08 07:37:00,59.6,55.7,29.71,NNW,338,4.0,7.0,87,0.00,,---,0.00,VWS V14.00,2013-08-08 13:37:00,
2013-08-08 07:42:00,59.5,55.6,29.71,North,360,5.0,7.0,87,0.00,,---,0.00,VWS V14.00,2013-08-08 13:42:00,
2013-08-08 07:47:00,59.6,55.7,29.71,North,5,4.0,5.0,87,0.00,,---,0.00,VWS V14.00,2013-08-08 13:47:00,
2013-08-08 07:52:00,59.8,55.9,29.71,NNE,16,5.0,7.0,87,0.00,,---,0.00,VWS V14.00,2013-08-08 13:52:00,
2013-08-08 07:57:00,60.0,55.8,29.71,NNE,20,0.0,4.0,86,0.00,,---,0.00,VWS V14.00,2013-08-08 13:57:00,
2013-08-08 08:02:00,60.4,56.2,29.71,NE,38,4.0,5.0,86,0.00,,---,0.00,VWS V14.00,2013-08-08 14:02:00,
2013-08-08 08:07:00,61.1,56.6,29.71,NNE,22,6.0,7.0,85,0.00,,---,0.00,VWS V14.00,2013-08-08 14:07:00,
2013-08-08 08:12:00,62.0,56.1,29.71,NE,51,4.0,7.0,81,0.00,,---,0.00,VWS V14.00,2013-08-08 14:12:00,
2013-08-08 08:17:00,62.1,56.2,29.71,NE,42,5.0,8.0,81,0.00,,---,0.00,VWS V14.00,2013-08-08 14:17:00,
2013-08-08 08:22:00,62.1,55.9,29.71,NE,38,4.0,8.0,80,0.00,,---,0.00,VWS V14.00,2013-08-08 14:22:00,
2013-08-08 08:28:00,62.1,55.9,29.71,NE,34,2.0,8.0,80,0.00,,---,0.00,VWS V14.00,2013-08-08 14:28:00,
2013-08-08 08:33:00,62.1,55.9,29.72,NNE,19,5.0,8.0,80,0.00,,---,0.00,VWS V14.00,2013-08-08 14:33:00,
2013-08-08 08:38:00,62.1,55.9,29.72,NE,36,4.0,6.0,80,0.00,,---,0.00,VWS V14.00,2013-08-08 14:38:00,
2013-08-08 08:43:00,62.4,56.2,29.72,NNE,15,6.0,8.0,80,0.00,,---,0.00,VWS V14.00,2013-08-08 14:43:00,
2013-08-08 08:48:00,62.5,56.2,29.72,NNE,21,6.0,8.0,80,0.00,,---,0.00,VWS V14.00,2013-08-08 14:48:00,
2013-08-08 08:53:00,62.5,55.9,29.72,NNE,15,6.0,9.0,79,0.00,,---,0.00,VWS V14.00,2013-08-08 14:53:00,
2013-08-08 08:58:00,62.5,56.2,29.73,NE,39,5.0,8.0,80,0.00,,---,0.00,VWS V14.00,2013-08-08 14:58:00,
2013-08-08 09:03:00,62.5,56.2,29.73,NE,44,6.0,8.0,80,0.00,,---,0.00,VWS V14.00,2013-08-08 15:03:00,
2013-08-08 09:08:00,62.5,56.6,29.73,NNE,23,3.0,6.0,81,0.00,,---,0.00,VWS V14.00,2013-08-08 15:08:00,
2013-08-08 09:13:00,62.7,56.8,29.72,NE,37,2.0,6.0,81,0.00,,---,0.00,VWS V14.00,2013-08-08 15:13:00,
2013-08-08 09:18:00,62.8,56.9,29.72,NE,36,2.0,6.0,81,0.00,,---,0.00,VWS V14.00,2013-08-08 15:18:00,
2013-08-08 09:23:00,63.0,57.1,29.72,NE,44,0.0,6.0,81,0.00,,---,0.00,VWS V14.00,2013-08-08 15:23:00,
2013-08-08 09:28:00,63.3,57.0,29.73,NE,48,0.0,8.0,80,0.00,,---,0.00,VWS V14.00,2013-08-08 15:28:00,
2013-08-08 09:33:00,63.5,56.9,29.72,NNE,19,4.0,8.0,79,0.00,,---,0.00,VWS V14.00,2013-08-08 15:33:00,
2013-08-08 09:38:00,63.7,57.4,29.73,ENE,61,3.0,8.0,80,0.00,,---,0.00,VWS V14.00,2013-08-08 15:38:00,
2013-08-08 09:43:00,64.0,57.4,29.73,ENE,69,3.0,8.0,79,0.00,,---,0.00,VWS V14.00,2013-08-08 15:43:00,
2013-08-08 09:48:00,63.9,57.3,29.73,NE,49,0.0,7.0,79,0.00,,---,0.00,VWS V14.00,2013-08-08 15:48:00,
2013-08-08 09:53:00,63.9,56.9,29.73,NE,40,4.0,7.0,78,0.00,,---,0.00,VWS V14.00,2013-08-08 15:53:00,
2013-08-08 09:59:00,64.2,57.2,29.73,NE,49,3.0,8.0,78,0.00,,---,0.00,VWS V14.00,2013-08-08 15:59:00,
2013-08-08 10:04:00,64.6,57.2,29.73,East,80,0.0,8.0,77,0.00,,---,0.00,VWS V14.00,2013-08-08 16:04:00,
2013-08-08 10:09:00,65.3,57.9,29.73,NE,51,0.0,8.0,77,0.00,,---,0.00,VWS V14.00,2013-08-08 16:09:00,
2013-08-08 10:14:00,65.9,57.4,29.73,NE,51,0.0,8.0,74,0.00,,---,0.00,VWS V14.00,2013-08-08 16:14:00,
2013-08-08 10:19:00,66.4,57.1,29.73,East,88,3.0,6.0,72,0.00,,---,0.00,VWS V14.00,2013-08-08 16:19:00,
2013-08-08 10:24:00,65.9,57.0,29.73,East,87,0.0,6.0,73,0.00,,---,0.00,VWS V14.00,2013-08-08 16:24:00,
2013-08-08 10:29:00,65.4,57.3,29.73,NNE,24,0.0,7.0,75,0.00,,---,0.00,VWS V14.00,2013-08-08 16:29:00,
2013-08-08 10:34:00,65.4,57.7,29.73,East,87,3.0,7.0,76,0.00,,---,0.00,VWS V14.00,2013-08-08 16:34:00,
2013-08-08 10:39:00,65.6,57.5,29.73,ENE,71,0.0,8.0,75,0.00,,---,0.00,VWS V14.00,2013-08-08 16:39:00,
2013-08-08 10:44:00,65.6,57.5,29.73,East,97,0.0,8.0,75,0.00,,---,0.00,VWS V14.00,2013-08-08 16:44:00,
2013-08-08 10:49:00,65.3,56.8,29.73,SE,126,4.0,8.0,74,0.00,,---,0.00,VWS V14.00,2013-08-08 16:49:00,
2013-08-08 10:55:00,64.8,57.4,29.73,SE,136,2.0,5.0,77,0.00,,---,0.00,VWS V14.00,2013-08-08 16:55:00,
2013-08-08 11:00:00,64.3,57.7,29.74,ESE,116,8.0,9.0,79,0.00,,---,0.00,VWS V14.00,2013-08-08 17:00:00,
2013-08-08 11:05:00,63.8,57.5,29.73,ESE,121,6.0,6.0,80,0.00,,---,0.00,VWS V14.00,2013-08-08 17:05:00,
2013-08-08 11:10:00,63.5,57.6,29.74,ESE,109,5.0,9.0,81,0.00,,---,0.00,VWS V14.00,2013-08-08 17:10:00,
2013-08-08 11:15:00,63.4,57.5,29.73,SE,124,8.0,8.0,81,0.00,,---,0.00,VWS V14.00,2013-08-08 17:15:00,
2013-08-08 11:20:00,63.2,57.6,29.73,ESE,105,6.0,13.0,82,0.00,,---,0.00,VWS V14.00,2013-08-08 17:20:00,
2013-08-08 11:25:00,63.2,57.6,29.74,SSE,152,7.0,8.0,82,0.00,,---,0.00,VWS V14.00,2013-08-08 17:25:00,
2013-08-08 11:30:00,63.2,57.6,29.73,ESE,121,11.0,12.0,82,0.00,,---,0.00,VWS V14.00,2013-08-08 17:30:00,
2013-08-08 11:35:00,62.9,57.3,29.74,ESE,111,5.0,8.0,82,0.00,,---,0.00,VWS V14.00,2013-08-08 17:35:00,
2013-08-08 11:40:00,63.0,57.4,29.74,SE,146,6.0,8.0,82,0.00,,---,0.00,VWS V14.00,2013-08-08 17:40:00,
2013-08-08 11:46:00,63.4,57.8,29.74,SE,130,0.0,8.0,82,0.00,,---,0.00,VWS V14.00,2013-08-08 17:46:00,
2013-08-08 11:51:00,63.6,57.7,29.74,ENE,70,0.0,8.0,81,0.00,,---,0.00,VWS V14.00,2013-08-08 17:51:00,
2013-08-08 11:56:00,64.1,57.8,29.74,SE,129,1.0,1.0,80,0.00,,---,0.00,VWS V14.00,2013-08-08 17:56:00,
2013-08-08 12:01:00,64.1,57.5,29.74,ESE,112,0.0,7.0,79,0.00,,---,0.00,VWS V14.00,2013-08-08 18:01:00,
2013-08-08 12:06:00,64.8,58.1,29.74,SE,140,2.0,5.0,79,0.00,,---,0.00,VWS V14.00,2013-08-08 18:06:00,
2013-08-08 12:11:00,65.1,58.1,29.74,ESE,116,0.0,8.0,78,0.00,,---,0.00,VWS V14.00,2013-08-08 18:11:00,
2013-08-08 12:16:00,65.2,58.5,29.74,ENE,74,5.0,5.0,79,0.00,,---,0.00,VWS V14.00,2013-08-08 18:16:00,
2013-08-08 12:21:00,65.2,58.2,29.73,East,81,3.0,8.0,78,0.00,,---,0.00,VWS V14.00,2013-08-08 18:21:00,
2013-08-08 12:26:00,65.1,58.1,29.74,ESE,114,4.0,7.0,78,0.00,,---,0.00,VWS V14.00,2013-08-08 18:26:00,
2013-08-08 12:31:00,64.7,57.7,29.74,ESE,120,6.0,9.0,78,0.00,,---,0.00,VWS V14.00,2013-08-08 18:31:00,
2013-08-08 12:36:00,64.7,57.7,29.73,SE,134,5.0,7.0,78,0.00,,---,0.00,VWS V14.00,2013-08-08 18:36:00,
2013-08-08 12:42:00,64.7,57.7,29.73,ESE,123,8.0,9.0,78,0.00,,---,0.00,VWS V14.00,2013-08-08 18:42:00,
2013-08-08 12:47:00,64.5,57.5,29.73,ESE,121,0.0,5.0,78,0.00,,---,0.00,VWS V14.00,2013-08-08 18:47:00,
2013-08-08 12:52:00,64.8,57.8,29.73,ESE,103,0.0,7.0,78,0.00,,---,0.00,VWS V14.00,2013-08-08 18:52:00,
2013-08-08 12:57:00,65.1,57.7,29.73,SE,136,4.0,5.0,77,0.00,,---,0.00,VWS V14.00,2013-08-08 18:57:00,
2013-08-08 13:02:00,65.4,57.7,29.73,SSE,151,2.0,7.0,76,0.00,,---,0.00,VWS V14.00,2013-08-08 19:02:00,
2013-08-08 13:07:00,65.6,57.8,29.73,SE,130,0.0,5.0,76,0.00,,---,0.00,VWS V14.00,2013-08-08 19:07:00,
2013-08-08 13:12:00,65.6,57.8,29.73,ESE,109,2.0,9.0,76,0.00,,---,0.00,VWS V14.00,2013-08-08 19:12:00,
2013-08-08 13:17:00,65.4,57.7,29.73,SSE,148,4.0,10.0,76,0.00,,---,0.00,VWS V14.00,2013-08-08 19:17:00,
2013-08-08 13:23:00,65.0,57.6,29.73,ESE,122,6.0,10.0,77,0.00,,---,0.00,VWS V14.00,2013-08-08 19:23:00,
2013-08-08 13:28:00,64.8,57.4,29.73,SE,126,0.0,4.0,77,0.00,,---,0.00,VWS V14.00,2013-08-08 19:28:00,
2013-08-08 13:33:00,64.8,57.4,29.73,SE,126,0.0,4.0,77,0.00,,---,0.00,VWS V14.00,2013-08-08 19:33:00,
2013-08-08 13:38:00,64.9,57.5,29.72,SSE,159,2.0,8.0,77,0.00,,---,0.00,VWS V14.00,2013-08-08 19:38:00,
2013-08-08 13:43:00,65.0,58.0,29.72,SSE,153,4.0,8.0,78,0.00,,---,0.00,VWS V14.00,2013-08-08 19:43:00,
2013-08-08 13:48:00,65.3,57.5,29.72,SSE,157,2.0,6.0,76,0.00,,---,0.00,VWS V14.00,2013-08-08 19:48:00,
2013-08-08 13:53:00,65.4,57.7,29.72,SE,142,4.0,7.0,76,0.00,,---,0.00,VWS V14.00,2013-08-08 19:53:00,
2013-08-08 13:58:00,65.8,58.0,29.72,ESE,118,5.0,7.0,76,0.00,,---,0.00,VWS V14.00,2013-08-08 19:58:00,
2013-08-08 14:03:00,66.5,58.3,29.72,SE,128,6.0,8.0,75,0.00,,---,0.00,VWS V14.00,2013-08-08 20:03:00,
2013-08-08 14:08:00,66.8,57.5,29.72,SE,127,2.0,6.0,72,0.00,,---,0.00,VWS V14.00,2013-08-08 20:08:00,
2013-08-08 14:10:00,67.0,57.7,29.72,SE,130,5.0,7.0,72,0.00,,---,0.00,VWS V14.00,2013-08-08 20:10:00,
2013-08-08 14:15:00,67.0,57.3,29.72,SE,143,4.0,4.0,71,0.00,,---,0.00,VWS V14.00,2013-08-08 20:15:00,
2013-08-08 14:20:00,67.0,57.7,29.72,ESE,102,4.0,9.0,72,0.00,,---,0.00,VWS V14.00,2013-08-08 20:20:00,
2013-08-08 14:25:00,67.3,58.0,29.72,SE,136,5.0,7.0,72,0.00,,---,0.00,VWS V14.00,2013-08-08 20:25:00,
2013-08-08 14:30:00,69.0,59.2,29.72,East,92,4.0,10.0,71,0.00,,---,0.00,VWS V14.00,2013-08-08 20:30:00,
2013-08-08 14:35:00,69.7,57.4,29.72,South,186,0.0,3.0,65,0.00,,---,0.00,VWS V14.00,2013-08-08 20:35:00,
2013-08-08 14:41:00,69.8,57.5,29.71,SSE,157,5.0,11.0,65,0.00,,---,0.00,VWS V14.00,2013-08-08 20:41:00,
2013-08-08 14:46:00,70.1,57.4,29.71,SE,133,4.0,11.0,64,0.00,,---,0.00,VWS V14.00,2013-08-08 20:46:00,
2013-08-08 14:51:00,70.4,57.7,29.71,SE,136,6.0,11.0,64,0.00,,---,0.00,VWS V14.00,2013-08-08 20:51:00,
2013-08-08 14:56:00,70.9,57.7,29.71,SE,132,6.0,12.0,63,0.00,,---,0.00,VWS V14.00,2013-08-08 20:56:00,
2013-08-08 15:01:00,70.9,57.2,29.71,SE,146,8.0,12.0,62,0.00,,---,0.00,VWS V14.00,2013-08-08 21:01:00,
2013-08-08 15:06:00,70.9,56.3,29.71,SE,130,9.0,12.0,60,0.00,,---,0.00,VWS V14.00,2013-08-08 21:06:00,
2013-08-08 15:11:00,70.5,56.9,29.71,SSE,158,6.0,12.0,62,0.00,,---,0.00,VWS V14.00,2013-08-08 21:11:00,
2013-08-08 15:18:00,70.5,56.9,29.71,ESE,102,2.0,8.0,62,0.00,,---,0.00,VWS V14.00,2013-08-08 21:18:00,
2013-08-08 15:23:00,71.5,57.4,29.71,East,93,0.0,8.0,61,0.00,,---,0.00,VWS V14.00,2013-08-08 21:23:00,
2013-08-08 15:28:00,72.3,56.7,29.71,South,187,6.0,12.0,58,0.00,,---,0.00,VWS V14.00,2013-08-08 21:28:00,
2013-08-08 15:33:00,72.0,56.9,29.71,East,96,0.0,12.0,59,0.00,,---,0.00,VWS V14.00,2013-08-08 21:33:00,
2013-08-08 15:39:00,71.2,56.2,29.71,South,170,4.0,12.0,59,0.00,,---,0.00,VWS V14.00,2013-08-08 21:39:00,
2013-08-08 15:44:00,70.4,56.3,29.71,ESE,119,2.0,12.0,61,0.00,,---,0.00,VWS V14.00,2013-08-08 21:44:00,
2013-08-08 15:49:00,70.2,56.1,29.71,NNE,26,0.0,5.0,61,0.00,,---,0.00,VWS V14.00,2013-08-08 21:49:00,
2013-08-08 15:54:00,70.3,55.8,29.71,SSE,163,5.0,8.0,60,0.00,,---,0.00,VWS V14.00,2013-08-08 21:54:00,
2013-08-08 15:59:00,70.4,56.3,29.71,SSE,150,6.0,9.0,61,0.00,,---,0.00,VWS V14.00,2013-08-08 21:59:00,
2013-08-08 16:04:00,70.6,56.5,29.71,SSE,168,5.0,9.0,61,0.00,,---,0.00,VWS V14.00,2013-08-08 22:04:00,
2013-08-08 16:10:00,70.2,55.7,29.71,South,175,6.0,8.0,60,0.00,,---,0.00,VWS V14.00,2013-08-08 22:10:00,
2013-08-08 16:15:00,69.9,55.4,29.71,SSE,149,5.0,7.0,60,0.00,,---,0.00,VWS V14.00,2013-08-08 22:15:00,
2013-08-08 16:20:00,69.7,55.2,29.71,SSE,150,0.0,7.0,60,0.00,,---,0.00,VWS V14.00,2013-08-08 22:20:00,
2013-08-08 16:25:00,69.7,55.2,29.72,SSE,148,2.0,5.0,60,0.00,,---,0.00,VWS V14.00,2013-08-08 22:25:00,
2013-08-08 16:30:00,69.8,54.4,29.72,SSE,150,0.0,5.0,58,0.00,,---,0.00,VWS V14.00,2013-08-08 22:30:00,
2013-08-08 16:35:00,69.8,54.8,29.72,SSE,150,0.0,0.0,59,0.00,,---,0.00,VWS V14.00,2013-08-08 22:35:00,
2013-08-08 16:41:00,69.9,54.9,29.72,SSE,149,0.0,5.0,59,0.00,,---,0.00,VWS V14.00,2013-08-08 22:41:00,
2013-08-08 16:46:00,70.0,55.0,29.72,SSE,164,5.0,5.0,59,0.00,,---,0.00,VWS V14.00,2013-08-08 22:46:00,
2013-08-08 16:52:00,70.1,54.7,29.72,SSE,158,0.0,6.0,58,0.00,,---,0.00,VWS V14.00,2013-08-08 22:52:00,
2013-08-08 16:58:00,70.3,54.8,29.72,SSE,157,4.0,4.0,58,0.00,,---,0.00,VWS V14.00,2013-08-08 22:58:00,
2013-08-08 17:03:00,70.6,55.1,29.72,SSE,157,0.0,4.0,58,0.00,,---,0.00,VWS V14.00,2013-08-08 23:03:00,
2013-08-08 17:08:00,70.9,54.9,29.72,South,169,5.0,6.0,57,0.00,,---,0.00,VWS V14.00,2013-08-08 23:08:00,
2013-08-08 17:13:00,70.8,54.8,29.72,SW,225,0.0,6.0,57,0.00,,---,0.00,VWS V14.00,2013-08-08 23:13:00,
2013-08-08 17:19:00,70.8,54.8,29.72,SW,225,0.0,1.0,57,0.00,,---,0.00,VWS V14.00,2013-08-08 23:19:00,
2013-08-08 17:24:00,70.9,54.9,29.72,SW,226,0.0,1.0,57,0.00,,---,0.00,VWS V14.00,2013-08-08 23:24:00,
2013-08-08 17:29:00,71.0,55.0,29.72,SW,226,0.0,0.0,57,0.00,,---,0.00,VWS V14.00,2013-08-08 23:29:00,
2013-08-08 17:34:00,71.1,55.1,29.72,SW,226,0.0,0.0,57,0.00,,---,0.00,VWS V14.00,2013-08-08 23:34:00,
2013-08-08 17:40:00,71.2,54.7,29.72,SW,228,0.0,2.0,56,0.00,,---,0.00,VWS V14.00,2013-08-08 23:40:00,
2013-08-08 17:45:00,71.2,54.7,29.72,SW,228,0.0,0.0,56,0.00,,---,0.00,VWS V14.00,2013-08-08 23:45:00,
2013-08-08 17:50:00,71.2,54.2,29.72,SW,228,0.0,2.0,55,0.00,,---,0.00,VWS V14.00,2013-08-08 23:50:00,
2013-08-08 17:56:00,71.3,53.8,29.72,SW,232,0.0,0.0,54,0.00,,---,0.00,VWS V14.00,2013-08-08 23:56:00,
2013-08-08 18:01:00,71.3,54.3,29.72,WSW,243,0.0,1.0,55,0.00,,---,0.00,VWS V14.00,2013-08-09 00:01:00,
2013-08-08 18:07:00,71.3,54.8,29.71,NNE,12,3.0,5.0,56,0.00,,---,0.00,VWS V14.00,2013-08-09 00:07:00,
2013-08-08 18:12:00,71.3,54.8,29.72,NNE,13,3.0,5.0,56,0.00,,---,0.00,VWS V14.00,2013-08-09 00:12:00,
2013-08-08 18:17:00,71.3,54.8,29.72,NNE,13,2.0,4.0,56,0.00,,---,0.00,VWS V14.00,2013-08-09 00:17:00,
2013-08-08 18:22:00,71.2,54.7,29.71,NNE,23,0.0,5.0,56,0.00,,---,0.00,VWS V14.00,2013-08-09 00:22:00,
2013-08-08 18:28:00,71.1,54.6,29.72,NNE,25,6.0,6.0,56,0.00,,---,0.00,VWS V14.00,2013-08-09 00:28:00,
2013-08-08 18:33:00,71.0,54.5,29.72,NNE,30,3.0,6.0,56,0.00,,---,0.00,VWS V14.00,2013-08-09 00:33:00,
2013-08-08 18:38:00,71.0,54.5,29.72,NNE,24,1.0,5.0,56,0.00,,---,0.00,VWS V14.00,2013-08-09 00:38:00,
2013-08-08 18:43:00,71.0,54.0,29.72,NNE,26,1.0,5.0,55,0.00,,---,0.00,VWS V14.00,2013-08-09 00:43:00,
2013-08-08 18:48:00,71.1,54.1,29.72,NNE,26,2.0,3.0,55,0.00,,---,0.00,VWS V14.00,2013-08-09 00:48:00,
2013-08-08 18:54:00,71.0,54.0,29.71,NNE,26,0.0,3.0,55,0.00,,---,0.00,VWS V14.00,2013-08-09 00:54:00,
2013-08-08 18:59:00,71.1,54.1,29.71,NNE,27,2.0,3.0,55,0.00,,---,0.00,VWS V14.00,2013-08-09 00:59:00,
2013-08-08 19:04:00,71.1,54.6,29.71,NNE,27,0.0,3.0,56,0.00,,---,0.00,VWS V14.00,2013-08-09 01:04:00,
2013-08-08 19:09:00,71.0,54.0,29.70,NNE,27,2.0,3.0,55,0.00,,---,0.00,VWS V14.00,2013-08-09 01:09:00,
2013-08-08 19:14:00,70.9,54.9,29.70,NNE,27,0.0,3.0,57,0.00,,---,0.00,VWS V14.00,2013-08-09 01:14:00,
2013-08-08 19:19:00,70.8,54.8,29.70,NNE,27,0.0,0.0,57,0.00,,---,0.00,VWS V14.00,2013-08-09 01:19:00,
2013-08-08 19:24:00,70.8,54.8,29.70,NNE,27,0.0,0.0,57,0.00,,---,0.00,VWS V14.00,2013-08-09 01:24:00,
2013-08-08 19:30:00,70.6,54.2,29.70,NNE,27,0.0,0.0,56,0.00,,---,0.00,VWS V14.00,2013-08-09 01:30:00,
2013-08-08 19:35:00,70.6,54.2,29.70,NNE,27,0.0,0.0,56,0.00,,---,0.00,VWS V14.00,2013-08-09 01:35:00,
2013-08-08 19:40:00,70.3,54.4,29.70,NNE,27,0.0,0.0,57,0.00,,---,0.00,VWS V14.00,2013-08-09 01:40:00,
2013-08-08 19:45:00,69.8,54.4,29.71,NNE,27,0.0,0.0,58,0.00,,---,0.00,VWS V14.00,2013-08-09 01:45:00,
2013-08-08 19:52:00,69.4,54.9,29.71,NNE,27,0.0,1.0,60,0.00,,---,0.00,VWS V14.00,2013-08-09 01:52:00,
2013-08-08 19:57:00,69.0,55.0,29.72,NNE,27,0.0,0.0,61,0.00,,---,0.00,VWS V14.00,2013-08-09 01:57:00,
2013-08-08 20:02:00,68.6,54.6,29.72,NNE,27,0.0,1.0,61,0.00,,---,0.00,VWS V14.00,2013-08-09 02:02:00,
2013-08-08 20:07:00,68.1,54.6,29.72,NNE,27,0.0,0.0,62,0.00,,---,0.00,VWS V14.00,2013-08-09 02:07:00,
2013-08-08 20:12:00,67.7,54.7,29.73,NE,44,0.0,1.0,63,0.00,,---,0.00,VWS V14.00,2013-08-09 02:12:00,
2013-08-08 20:18:00,67.7,55.1,29.73,NE,56,2.0,4.0,64,0.00,,---,0.00,VWS V14.00,2013-08-09 02:18:00,
2013-08-08 20:23:00,68.0,55.0,29.73,South,175,0.0,5.0,63,0.00,,---,0.00,VWS V14.00,2013-08-09 02:23:00,
2013-08-08 20:28:00,68.0,55.4,29.74,SE,143,2.0,7.0,64,0.00,,---,0.00,VWS V14.00,2013-08-09 02:28:00,
2013-08-08 20:33:00,67.8,56.0,29.74,East,81,0.0,7.0,66,0.00,,---,0.00,VWS V14.00,2013-08-09 02:33:00,
2013-08-08 20:38:00,67.4,56.1,29.75,NE,37,0.0,7.0,67,0.00,,---,0.00,VWS V14.00,2013-08-09 02:38:00,
2013-08-08 20:43:00,67.0,56.1,29.75,SE,126,0.0,7.0,68,0.00,,---,0.00,VWS V14.00,2013-08-09 02:43:00,
2013-08-08 20:48:00,66.6,55.3,29.75,SSW,206,3.0,8.0,67,0.00,,---,0.00,VWS V14.00,2013-08-09 02:48:00,
2013-08-08 20:53:00,66.5,54.4,29.76,SSW,209,0.0,8.0,65,0.00,,---,0.00,VWS V14.00,2013-08-09 02:53:00,
2013-08-08 20:59:00,66.5,54.0,29.76,SW,217,5.0,5.0,64,0.00,,---,0.00,VWS V14.00,2013-08-09 02:59:00,
2013-08-08 21:04:00,66.4,53.9,29.76,South,184,0.0,5.0,64,0.00,,---,0.00,VWS V14.00,2013-08-09 03:04:00,
2013-08-08 21:09:00,66.3,53.3,29.76,SSW,213,0.0,4.0,63,0.00,,---,0.00,VWS V14.00,2013-08-09 03:09:00,
2013-08-08 21:14:00,66.3,53.3,29.77,NE,41,0.0,4.0,63,0.00,,---,0.00,VWS V14.00,2013-08-09 03:14:00,
2013-08-08 21:19:00,66.0,53.1,29.78,NE,55,0.0,2.0,63,0.00,,---,0.00,VWS V14.00,2013-08-09 03:19:00,
2013-08-08 21:24:00,65.6,54.4,29.78,North,351,3.0,6.0,67,0.00,,---,0.00,VWS V14.00,2013-08-09 03:24:00,
2013-08-08 21:29:00,65.0,52.5,29.78,NNW,346,0.0,3.0,64,0.00,,---,0.00,VWS V14.00,2013-08-09 03:29:00,
2013-08-08 21:35:00,64.9,52.5,29.78,North,350,0.0,0.0,64,0.00,,---,0.00,VWS V14.00,2013-08-09 03:35:00,
2013-08-08 21:40:00,64.9,52.0,29.78,NNW,340,2.0,4.0,63,0.00,,---,0.00,VWS V14.00,2013-08-09 03:40:00,
2013-08-08 21:45:00,65.0,52.1,29.78,NNW,340,0.0,0.0,63,0.00,,---,0.00,VWS V14.00,2013-08-09 03:45:00,
2013-08-08 21:51:00,65.1,52.2,29.78,NNW,340,0.0,0.0,63,0.00,,---,0.00,VWS V14.00,2013-08-09 03:51:00,
2013-08-08 21:57:00,65.2,52.7,29.78,WNW,297,5.0,5.0,64,0.00,,---,0.00,VWS V14.00,2013-08-09 03:57:00,
2013-08-08 22:01:00,65.0,53.4,29.78,WNW,302,0.0,5.0,66,0.00,,---,0.00,VWS V14.00,2013-08-09 04:01:00,
2013-08-08 22:02:00,65.0,53.0,29.78,WNW,297,5.0,5.0,65,0.00,,---,0.00,VWS V14.00,2013-08-09 04:02:00,
2013-08-08 22:04:00,64.9,53.3,29.78,WNW,298,3.0,3.0,66,0.00,,---,0.00,VWS V14.00,2013-08-09 04:04:00,
2013-08-08 22:09:00,64.9,52.5,29.77,WNW,301,3.0,7.0,64,0.00,,---,0.00,VWS V14.00,2013-08-09 04:09:00,
2013-08-08 22:15:00,64.9,52.5,29.78,WNW,294,3.0,4.0,64,0.00,,---,0.00,VWS V14.00,2013-08-09 04:15:00,
2013-08-08 22:20:00,64.8,52.8,29.78,SSW,205,4.0,8.0,65,0.00,,---,0.00,VWS V14.00,2013-08-09 04:20:00,
2013-08-08 22:25:00,64.6,52.6,29.78,SSW,205,0.0,2.0,65,0.00,,---,0.00,VWS V14.00,2013-08-09 04:25:00,
2013-08-08 22:30:00,64.6,51.7,29.77,SSW,205,0.0,2.0,63,0.00,,---,0.00,VWS V14.00,2013-08-09 04:30:00,
2013-08-08 22:35:00,64.7,51.8,29.77,SSW,205,0.0,0.0,63,0.00,,---,0.00,VWS V14.00,2013-08-09 04:35:00,
2013-08-08 22:40:00,64.9,52.0,29.77,South,170,7.0,7.0,63,0.00,,---,0.00,VWS V14.00,2013-08-09 04:40:00,
2013-08-08 22:45:00,64.6,51.3,29.77,South,185,8.0,15.0,62,0.00,,---,0.00,VWS V14.00,2013-08-09 04:45:00,
2013-08-08 22:50:00,64.1,51.3,29.78,South,182,8.0,15.0,63,0.00,,---,0.00,VWS V14.00,2013-08-09 04:50:00,
2013-08-08 22:55:00,63.8,51.4,29.78,South,173,10.0,10.0,64,0.00,,---,0.00,VWS V14.00,2013-08-09 04:55:00,
2013-08-08 23:00:00,63.5,51.1,29.78,South,175,5.0,10.0,64,0.00,,---,0.00,VWS V14.00,2013-08-09 05:00:00,
2013-08-08 23:05:00,63.4,51.4,29.77,SSE,159,7.0,11.0,65,0.00,,---,0.00,VWS V14.00,2013-08-09 05:05:00,
2013-08-08 23:10:00,63.2,51.7,29.77,WSW,257,2.0,11.0,66,0.00,,---,0.00,VWS V14.00,2013-08-09 05:10:00,
2013-08-08 23:15:00,63.0,51.9,29.77,SSW,202,0.0,1.0,67,0.00,,---,0.00,VWS V14.00,2013-08-09 05:15:00,
2013-08-08 23:20:00,62.8,51.7,29.77,NW,322,0.0,4.0,67,0.00,,---,0.00,VWS V14.00,2013-08-09 05:20:00,
2013-08-08 23:25:00,62.7,51.6,29.77,NW,309,2.0,8.0,67,0.00,,---,0.00,VWS V14.00,2013-08-09 05:25:00,
2013-08-08 23:30:00,62.7,52.0,29.77,WNW,300,6.0,10.0,68,0.00,,---,0.00,VWS V14.00,2013-08-09 05:30:00,
2013-08-08 23:35:00,62.7,51.6,29.77,NNE,25,1.0,4.0,67,0.00,,---,0.00,VWS V14.00,2013-08-09 05:35:00,
2013-08-08 23:40:00,62.9,51.4,29.77,NNW,338,0.0,5.0,66,0.00,,---,0.00,VWS V14.00,2013-08-09 05:40:00,
2013-08-08 23:45:00,63.0,51.1,29.76,North,355,0.0,5.0,65,0.00,,---,0.00,VWS V14.00,2013-08-09 05:45:00,
2013-08-08 23:51:00,63.1,51.2,29.77,North,360,2.0,6.0,65,0.00,,---,0.00,VWS V14.00,2013-08-09 05:51:00,
2013-08-08 23:56:00,63.0,50.2,29.76,NW,306,6.0,7.0,63,0.00,,---,0.00,VWS V14.00,2013-08-09 05:56:00,